OneWeb SL0302

operational
NORAD ID: 49091 Int'l Des: 2021-075 Owner: ONEWEBN Country: UK Constellation: oneweb
LEOCIRCULARPOLARONEWEB_TYPE

OneWeb SL0302について

説明を読み込み中...

リアルタイム位置

3D地球を読み込み中...

次回通過

高度履歴

Altitude vs Time

uPlot chart will show altitude changes over time

軌道要素

1 49091U 21075S 25349.80057439 .00000375 00000-0 10070-2 0 9992
2 49091 87.8939 27.0896 0001446 93.7551 266.3743 13.12455432210493
Epoch: Dec 15, 2025 • Age: 12 hours

現在のステータス

高度 1228.2 km
速度 7.24 km/s
衛星直下点 -36.64°S, 13.99°E
打ち上げ日 Aug 21, 2021
運用期間 4.3 years
タイプ internet

技術仕様

分類 Payload
質量 148.00 kg
乾燥質量 140.00 kg
総質量 148.00 kg
長さ 1.30 m
直径 1.00 m
スパン 5.00 m
形状 Trapezoid+2 pan
製造者 ONEWUS
バスタイプ ARROW
フェーズステータス In Orbit
所有者/国 ONEWEBN/UK

大規模コンステレーション

Loading constellations...